• MPC Preparation (Info)

  • MPEC 2016-R28 : 2016 QB45

    The following Minor Planet Electronic Circular may be linked-to from your own Web pages, but must not otherwise be redistributed electronically.

    A form allowing access to any MPEC is at the bottom of this page.


    Read MPEC 2016-R27 Read MPEC 2016-R29


    M.P.E.C. 2016-R28                                Issued 2016 Sept. 3, 01:19 UT
    
         The Minor Planet Electronic Circulars contain information on unusual
             minor planets and routine data on comets.  They are published
        on behalf of Division F of the International Astronomical Union by the
              Minor Planet Center, Smithsonian Astrophysical Observatory,
                              Cambridge, MA 02138, U.S.A.
    
                 Prepared using the Tamkin Foundation Computer Network
    
                                  MPC@CFA.HARVARD.EDU
                URL https://www.minorplanetcenter.net/    ISSN 1523-6714
    
                                       2016 QB45
    
    Observations:
         K16Q45B* C2016 08 30.34445 22 53 29.59 +16 17 31.0          20.8 VqER028G96
         K16Q45B  C2016 08 30.35288 22 53 29.70 +16 17 28.5          21.0 VqER028G96
         K16Q45B  C2016 08 30.36122 22 53 29.83 +16 17 25.5          20.7 VqER028G96
         K16Q45B  C2016 08 30.36948 22 53 29.99 +16 17 22.8          21.1 VqER028G96
         K16Q45B  C2016 08 30.40584 22 53 30.67 +16 17 08.8          20.9 VqER028G96
         K16Q45B  C2016 08 30.41799 22 53 30.89 +16 17 03.9          21.5 VqER028G96
         K16Q45B  C2016 08 30.43014 22 53 31.17 +16 17 00.0          21.5 VqER028G96
         K16Q45B  C2016 08 30.44223 22 53 31.37 +16 16 55.7          21.3 VqER028G96
         K16Q45B  C2016 08 30.95535 22 53 45.22 +16 13 39.8          21.3 VSER028033
         K16Q45B  C2016 08 30.95807 22 53 45.28 +16 13 38.9          21.5 VSER028033
         K16Q45B  C2016 08 30.96078 22 53 45.33 +16 13 37.5          21.7 VSER028033
         K16Q45B  C2016 08 30.96350 22 53 45.38 +16 13 36.5          21.9 VSER028033
         K16Q45B  C2016 08 30.96620 22 53 45.43 +16 13 35.4          21.9 VSER028033
         K16Q45B  C2016 08 30.96892 22 53 45.48 +16 13 34.4          21.5 VSER028033
         K16Q45B  C2016 08 31.01718 22 53 46.46 +16 13 15.9          21.6 VSER028033
         K16Q45B  C2016 08 31.01990 22 53 46.52 +16 13 14.6          22.0 VSER028033
         K16Q45B  C2016 08 31.02260 22 53 46.57 +16 13 13.6          22.0 VSER028033
         K16Q45B  C2016 08 31.02532 22 53 46.63 +16 13 12.5          21.6 VSER028033
         K16Q45B  C2016 08 31.02803 22 53 46.68 +16 13 11.6          21.7 VSER028033
         K16Q45B  C2016 08 31.03075 22 53 46.74 +16 13 10.5          21.8 VSER028033
         K16Q45B  C2016 08 31.08091 22 53 47.79 +16 12 50.6          21.6 VSER028033
         K16Q45B  C2016 08 31.08397 22 53 47.85 +16 12 49.1          21.8 VSER028033
         K16Q45B  C2016 08 31.08704 22 53 47.91 +16 12 47.8          22.0 VSER028033
         K16Q45B  C2016 08 31.09009 22 53 47.99 +16 12 46.5          22.2 VSER028033
         K16Q45B  C2016 08 31.09316 22 53 48.05 +16 12 45.5          22.2 VSER028033
         K16Q45B  C2016 08 31.09622 22 53 48.11 +16 12 44.1          21.9 VSER028033
         K16Q45B  C2016 08 31.27234 22 53 53.38 +16 11 41.4          21.0 VqER028G96
         K16Q45B  C2016 08 31.27916 22 53 53.52 +16 11 37.8          21.0 VqER028G96
         K16Q45B  C2016 08 31.28599 22 53 53.67 +16 11 34.9          20.8 VqER028G96
         K16Q45B  C2016 08 31.29282 22 53 53.76 +16 11 32.7                qER028G96
         K16Q45B  C2016 09 01.97075 22 54 36.28 +15 59 15.0          22.1 VSER028033
         K16Q45B  C2016 09 01.97520 22 54 36.38 +15 59 12.8          22.3 VSER028033
         K16Q45B  C2016 09 01.97965 22 54 36.48 +15 59 10.6          22.1 VSER028033
         K16Q45B  C2016 09 01.98410 22 54 36.57 +15 59 08.7          22.2 VSER028033
         K16Q45B  C2016 09 01.98855 22 54 36.66 +15 59 06.4          22.0 VSER028033
         K16Q45B  C2016 09 01.99300 22 54 36.76 +15 59 04.6          22.1 VSER028033
         K16Q45B KC2016 09 02.23687822 54 43.16 +15 57 10.5          21.5 VuER028H21
         K16Q45B KC2016 09 02.24685522 54 43.38 +15 57 05.9          21.3 VuER028H21
         K16Q45B KC2016 09 02.26051322 54 43.63 +15 56 59.0          21.2 VuER028H21
         K16Q45B KC2016 09 02.28589622 54 44.13 +15 56 46.9          21.3 VuER028H21
         K16Q45B  C2016 09 02.33795 22 54 45.51 +15 56 23.4          21.7 VqER028G96
         K16Q45B  C2016 09 02.34421 22 54 45.62 +15 56 20.8          20.9 VqER028G96
         K16Q45B  C2016 09 02.35057 22 54 45.77 +15 56 16.7          20.4 VqER028G96
         K16Q45B  C2016 09 02.35682 22 54 45.86 +15 56 14.0          21.0 VqER028G96
    
    Observer details:
    033 Karl Schwarzschild Observatory, Tautenburg.  Observers B. Stecklum,
        F. Ludwig.  Measurer B. Stecklum.  1.34-m f/3 Schmidt + CCD.
    G96 Mt. Lemmon Survey.  Observers R. A. Kowalski, A. D. Grauer.  Measurers
        E. J. Christensen, D. C. Fuls, A. R. Gibbs, A. D. Grauer, J. A. Johnson,
        R. A. Kowalski, S. M. Larson, G. J. Leonard, R. G. Matheny, R. L. Seaman,
        F. C. Shelly.  1.5-m reflector + 10K CCD.
    H21 Astronomical Research Observatory, Westfield.  Observer R. Holmes.
        Measurers S. Foglia, L. Buzzi, T. Linder, R. Holmes.  0.76-m f/3.0
        astrograph + CCD.
    
    Orbital elements:
    2016 QB45
    Epoch 2016 July 31.0 TT = JDT 2457600.5                 MPC
    M 342.14841              (2000.0)            P               Q
    n   0.21753735     Peri.  178.51691     +0.94684602     -0.31486628
    a   2.7380843      Node   200.21883     +0.29314458     +0.92889129
    e   0.5054168      Incl.   10.99118     +0.13247214     +0.19498767
    P   4.53           H   21.4           G   0.15           U   8
    Residuals in seconds of arc
    160830 G96  0.8+  0.5-    160831 033  0.0   0.0     160901 033  0.2-  0.0
    160830 G96  0.2+  0.0     160831 033  0.1-  0.0     160901 033  0.0   0.1-
    160830 G96  0.2-  0.1+    160831 033  0.0   0.0     160901 033  0.1+  0.2-
    160830 G96  0.1-  0.4+    160831 033  0.1-  0.2+    160901 033  0.1+  0.1+
    160830 G96  0.3-  0.1-    160831 033  0.0   0.2+    160901 033  0.1+  0.1-
    160830 G96  0.5-  0.5-    160831 033  0.1+  0.2+    160901 033  0.2+  0.2+
    160830 G96  0.1+  0.2+    160831 033  0.1+  0.0     160902 H21  0.3-  0.1-
    160830 G96  0.6-  0.5+    160831 033  0.0   0.1-    160902 H21  0.1+  0.2+
    160830 033  0.1+  0.2+    160831 033  0.2+  0.2-    160902 H21  0.1-  0.1-
    160830 033  0.1+  0.4+    160831 033  0.1+  0.1+    160902 H21  0.0   0.3+
    160830 033  0.1+  0.0     160831 033  0.0   0.1-    160902 G96  0.2-  0.0
    160830 033  0.0   0.0     160831 G96  0.5-  0.6+    160902 G96  0.3-  0.5+
    160830 033  0.1-  0.0     160831 G96  0.3-  0.3-    160902 G96  0.2+  0.4-
    160830 033  0.1-  0.0     160831 G96  0.0   0.5-    160902 G96  0.2-  0.0
    160831 033  0.1-  0.2+    160831 G96  0.5-  0.0
    
    Ephemeris:
    2016 QB45                a,e,i = 2.74, 0.51, 11                  q = 1.3542
    Date    TT    R. A. (2000) Decl.     Delta      r     Elong.  Phase     V
    2016 08 04    22 40 14.2 +15 22 37   0.6602  1.5719   138.6    25.2    22.6
    ...
    2016 08 19    22 48 31.8 +16 41 13   0.5467  1.5024   147.6    21.2    22.0
    ...
    2016 08 27    22 52 05.2 +16 33 32   0.4974  1.4695   152.4    18.6    21.7
    ...
    2016 09 02    22 54 37.0 +15 59 12   0.4659  1.4470   156.0    16.5    21.4
    2016 09 03    22 55 02.8 +15 50 55   0.4611  1.4434   156.5    16.2    21.4
    2016 09 04    22 55 28.9 +15 41 52   0.4564  1.4399   157.1    15.8    21.4
    ...
    2016 09 10    22 58 17.4 +14 31 46   0.4314  1.4203   160.1    13.9    21.1
    ...
    2016 09 18    23 02 56.9 +12 17 31   0.4059  1.3976   162.7    12.3    20.9
    ...
    2016 10 03    23 16 20.5 +06 30 02   0.3839  1.3674   159.8    14.6    20.8
    
    A. U. Tomatic                (C) Copyright 2016 MPC           M.P.E.C. 2016-R28
    

    Read MPEC 2016-R27 Read MPEC 2016-R29


    MPEC number:

    Enter an MPEC number in one of the following forms:

    • 1997-B01 (the full form)
    • J97B01 (the packed version of the full form)
    • B01 (the abbreviated form)